| time (UTC) | temp F | wind direction | speed MPH | gust MPH | rain 1hr in | rain 24hr in | rain mn in | humidity % | barometer mb |
| 20260903221334 | 80 | 24 | 0.0 | 2.0 | 0.00 | 0.04 | 0.02 | 86 | 1012.3 |
| 20260903220338 | 79 | 62 | 0.0 | 3.0 | 0.00 | 0.04 | 0.02 | 86 | 1012.3 |
| 20260903215343 | 79 | 117 | 0.0 | 2.0 | 0.00 | 0.04 | 0.02 | 86 | 1012.5 |
| 20260903214327 | 79 | 91 | 0.0 | 1.0 | 0.00 | 0.04 | 0.02 | 86 | 1012.6 |
| 20260903213329 | 79 | 108 | 1.0 | 2.0 | 0.00 | 0.04 | 0.02 | 86 | 1012.7 |
| 20260903212334 | 79 | 99 | 0.0 | 1.0 | 0.00 | 0.04 | 0.02 | 87 | 1012.8 |
| 20260903211358 | 78 | 126 | 0.0 | 1.0 | 0.00 | 0.04 | 0.02 | 87 | 1013.0 |
| 20260903210342 | 78 | 126 | 0.0 | 0.0 | 0.00 | 0.04 | 0.02 | 89 | 1012.9 |
| 20260903205327 | 78 | 110 | 0.0 | 0.0 | 0.00 | 0.04 | 0.02 | 89 | 1013.4 |
| 20260903204333 | 78 | 75 | 0.0 | 0.0 | 0.00 | 0.04 | 0.02 | 88 | 1013.6 |
| 20260903203332 | 77 | 41 | 0.0 | 5.0 | 0.00 | 0.04 | 0.02 | 89 | 1013.6 |
| 20260903202338 | 77 | 119 | 4.0 | 14.0 | 0.00 | 0.04 | 0.02 | 88 | 1013.7 |
| 20260903201401 | 76 | 129 | 3.0 | 7.0 | 0.00 | 0.04 | 0.02 | 88 | 1013.8 |
| 20260903200341 | 77 | 133 | 7.0 | 11.0 | 0.00 | 0.04 | 0.02 | 85 | 1014.4 |
| 20260903195329 | 78 | 116 | 3.0 | 8.0 | 0.00 | 0.04 | 0.02 | 81 | 1014.6 |
| 20260903194334 | 79 | 123 | 3.0 | 10.0 | 0.00 | 0.04 | 0.02 | 78 | 1014.6 |
| 20260903193336 | 80 | 103 | 3.0 | 14.0 | 0.00 | 0.04 | 0.02 | 76 | 1014.2 |
| 20260903192341 | 81 | 91 | 3.0 | 6.0 | 0.00 | 0.04 | 0.02 | 75 | 1014.1 |
| 20260903191326 | 83 | 128 | 3.0 | 13.0 | 0.00 | 0.04 | 0.02 | 70 | 1014.1 |
| 20260903190348 | 89 | 272 | 1.0 | 2.0 | 0.00 | 0.04 | 0.02 | 73 | 1013.6 |
| 20260903185354 | 89 | 26 | 0.0 | 3.0 | 0.00 | 0.04 | 0.02 | 72 | 1013.5 |
| 20260903184339 | 90 | 34 | 0.0 | 4.0 | 0.00 | 0.04 | 0.02 | 70 | 1013.4 |
| 20260903183324 | 91 | 360 | 0.0 | 2.0 | 0.00 | 0.04 | 0.02 | 69 | 1013.4 |
| 20260903182349 | 91 | 269 | 0.0 | 1.0 | 0.00 | 0.04 | 0.02 | 65 | 1013.4 |
| 20260903181352 | 91 | 264 | 0.0 | 2.0 | 0.00 | 0.04 | 0.02 | 65 | 1013.6 |
| 20260903180334 | 91 | 278 | 0.0 | 2.0 | 0.00 | 0.04 | 0.02 | 65 | 1013.8 |
| 20260903175338 | 91 | 257 | 1.0 | 6.0 | 0.00 | 0.04 | 0.02 | 66 | 1014.0 |
| 20260903174403 | 91 | 193 | 1.0 | 3.0 | 0.00 | 0.04 | 0.02 | 68 | 1013.8 |
| 20260903173404 | 90 | 168 | 1.0 | 5.0 | 0.00 | 0.04 | 0.02 | 69 | 1013.9 |
| 20260903172326 | 89 | 182 | 0.0 | 5.0 | 0.00 | 0.04 | 0.02 | 71 | 1013.9 |
| 20260903171330 | 89 | 177 | 0.0 | 2.0 | 0.00 | 0.04 | 0.02 | 72 | 1014.2 |
| 20260903170351 | 88 | 187 | 0.0 | 3.0 | 0.00 | 0.04 | 0.02 | 75 | 1014.4 |
| 20260903165337 | 87 | 185 | 0.0 | 0.0 | 0.00 | 0.04 | 0.02 | 75 | 1014.6 |
| 20260903164325 | 87 | 136 | 0.0 | 3.0 | 0.00 | 0.04 | 0.02 | 76 | 1014.7 |
| 20260903163326 | 87 | 145 | 1.0 | 3.0 | 0.00 | 0.04 | 0.02 | 78 | 1014.8 |
| 20260903162331 | 86 | 164 | 0.0 | 2.0 | 0.00 | 0.04 | 0.02 | 81 | 1014.6 |
| 20260903161336 | 86 | 185 | 1.0 | 3.0 | 0.00 | 0.04 | 0.02 | 81 | 1014.8 |
| 20260903160338 | 86 | 150 | 0.0 | 3.0 | 0.00 | 0.04 | 0.02 | 81 | 1014.7 |
| 20260903155326 | 86 | 207 | 1.0 | 4.0 | 0.00 | 0.04 | 0.02 | 81 | 1014.5 |
| 20260903154335 | 86 | 172 | 1.0 | 6.0 | 0.00 | 0.04 | 0.02 | 80 | 1014.5 |
| 20260903153338 | 86 | 182 | 1.0 | 4.0 | 0.00 | 0.04 | 0.02 | 82 | 1014.6 |
| 20260903152343 | 86 | 172 | 2.0 | 8.0 | 0.00 | 0.04 | 0.02 | 82 | 1014.7 |
| 20260903151328 | 85 | 151 | 2.0 | 4.0 | 0.00 | 0.04 | 0.02 | 83 | 1014.7 |
| 20260903150330 | 85 | 184 | 2.0 | 5.0 | 0.00 | 0.04 | 0.02 | 82 | 1014.7 |
| 20260903145336 | 85 | 171 | 1.0 | 6.0 | 0.00 | 0.04 | 0.02 | 83 | 1014.6 |
| 20260903144340 | 85 | 145 | 2.0 | 5.0 | 0.00 | 0.04 | 0.02 | 82 | 1014.6 |
| 20260903143342 | 86 | 156 | 0.0 | 6.0 | 0.00 | 0.04 | 0.02 | 83 | 1014.6 |
| 20260903142331 | 85 | 187 | 0.0 | 0.0 | 0.00 | 0.04 | 0.02 | 83 | 1014.6 |
| 20260903141337 | 85 | 176 | 0.0 | 0.0 | 0.00 | 0.04 | 0.02 | 84 | 1014.5 |
| 20260903140341 | 84 | 149 | 0.0 | 3.0 | 0.00 | 0.04 | 0.02 | 86 | 1014.5 |
| 20260903135326 | 83 | 131 | 0.0 | 4.0 | 0.00 | 0.04 | 0.02 | 86 | 1014.6 |
| 20260903134330 | 83 | 139 | 1.0 | 3.0 | 0.00 | 0.04 | 0.02 | 87 | 1014.5 |
| 20260903133332 | 83 | 141 | 1.0 | 3.0 | 0.00 | 0.04 | 0.02 | 87 | 1014.4 |
| 20260903132338 | 82 | 151 | 0.0 | 2.0 | 0.00 | 0.04 | 0.02 | 88 | 1014.3 |
| 20260903131328 | 82 | 151 | 0.0 | 0.0 | 0.00 | 0.04 | 0.02 | 88 | 1014.3 |
| 20260903130330 | 81 | 168 | 0.0 | 0.0 | 0.00 | 0.04 | 0.02 | 89 | 1014.2 |
| 20260903125336 | 81 | 185 | 0.0 | 3.0 | 0.00 | 0.04 | 0.02 | 89 | 1014.1 |
| 20260903124343 | 81 | 160 | 0.0 | 2.0 | 0.00 | 0.04 | 0.02 | 89 | 1014.0 |
| 20260903123325 | 81 | 170 | 0.0 | 2.0 | 0.00 | 0.04 | 0.02 | 89 | 1013.9 |
| 20260903122330 | 81 | 157 | 0.0 | 3.0 | 0.00 | 0.04 | 0.02 | 88 | 1013.8 |
| 20260903121335 | 81 | 148 | 0.0 | 2.0 | 0.00 | 0.04 | 0.02 | 88 | 1013.8 |
| 20260903120338 | 81 | 146 | 0.0 | 4.0 | 0.00 | 0.04 | 0.02 | 88 | 1013.7 |
| 20260903115328 | 81 | 159 | 0.0 | 2.0 | 0.00 | 0.04 | 0.02 | 88 | 1013.7 |
| 20260903114332 | 81 | 181 | 0.0 | 2.0 | 0.00 | 0.04 | 0.02 | 88 | 1013.7 |
| 20260903113336 | 81 | 187 | 1.0 | 3.0 | 0.00 | 0.04 | 0.02 | 88 | 1013.6 |
| 20260903112342 | 81 | 139 | 0.0 | 3.0 | 0.00 | 0.04 | 0.02 | 88 | 1013.6 |
| 20260903111327 | 81 | 151 | 1.0 | 2.0 | 0.00 | 0.04 | 0.02 | 87 | 1013.7 |
| 20260903110328 | 81 | 189 | 0.0 | 2.0 | 0.00 | 0.04 | 0.02 | 87 | 1013.8 |
| 20260903105334 | 82 | 146 | 0.0 | 3.0 | 0.00 | 0.04 | 0.00 | 87 | 1013.7 |
| 20260903104405 | 81 | 167 | 0.0 | 2.0 | 0.00 | 0.04 | 0.00 | 87 | 1013.5 |
| 20260903103325 | 82 | 171 | 0.0 | 2.0 | 0.00 | 0.04 | 0.00 | 87 | 1013.5 |
| 20260903102352 | 82 | 111 | 1.0 | 2.0 | 0.00 | 0.04 | 0.00 | 87 | 1013.5 |
| 20260903101356 | 82 | 166 | 0.0 | 1.0 | 0.00 | 0.04 | 0.00 | 87 | 1013.5 |
| 20260903100338 | 82 | 180 | 0.0 | 3.0 | 0.00 | 0.04 | 0.00 | 87 | 1013.4 |
| 20260903095344 | 82 | 172 | 0.0 | 2.0 | 0.00 | 0.04 | 0.00 | 87 | 1013.4 |
| 20260903094329 | 82 | 161 | 1.0 | 5.0 | 0.00 | 0.04 | 0.00 | 87 | 1013.5 |
| 20260903093332 | 82 | 151 | 0.0 | 3.0 | 0.00 | 0.04 | 0.00 | 87 | 1013.5 |
| 20260903092338 | 82 | 139 | 0.0 | 2.0 | 0.00 | 0.04 | 0.00 | 87 | 1013.4 |
| 20260903091328 | 82 | 144 | 0.0 | 2.0 | 0.00 | 0.04 | 0.00 | 87 | 1013.4 |
| 20260903090328 | 82 | 149 | 1.0 | 3.0 | 0.00 | 0.04 | 0.00 | 87 | 1013.3 |
| 20260903085335 | 82 | 129 | 0.0 | 2.0 | 0.00 | 0.04 | 0.00 | 88 | 1013.4 |
| 20260903084341 | 82 | 153 | 1.0 | 3.0 | 0.00 | 0.04 | 0.00 | 88 | 1013.3 |
| 20260903083325 | 82 | 174 | 1.0 | 4.0 | 0.00 | 0.04 | 0.00 | 87 | 1013.3 |
| 20260903082351 | 81 | 129 | 1.0 | 3.0 | 0.00 | 0.04 | 0.00 | 88 | 1013.2 |
| 20260903080337 | 82 | 141 | 2.0 | 3.0 | 0.00 | 0.04 | 0.00 | 88 | 1013.2 |
| 20260903075344 | 82 | 147 | 2.0 | 3.0 | 0.00 | 0.04 | 0.00 | 88 | 1013.2 |
| 20260903074327 | 81 | 145 | 2.0 | 3.0 | 0.00 | 0.04 | 0.00 | 88 | 1013.1 |
| 20260903073332 | 82 | 145 | 2.0 | 4.0 | 0.00 | 0.04 | 0.00 | 88 | 1013.2 |
| 20260903072339 | 82 | 138 | 2.0 | 7.0 | 0.00 | 0.04 | 0.00 | 88 | 1013.2 |
| 20260903071343 | 82 | 140 | 3.0 | 7.0 | 0.00 | 0.04 | 0.00 | 88 | 1013.2 |
| 20260903070324 | 81 | 139 | 3.0 | 5.0 | 0.00 | 0.04 | 0.00 | 88 | 1013.4 |
| 20260903065329 | 81 | 147 | 3.0 | 5.0 | 0.00 | 0.04 | 0.00 | 89 | 1013.5 |
| 20260903064340 | 81 | 126 | 4.0 | 7.0 | 0.00 | 0.04 | 0.00 | 89 | 1013.7 |
| 20260903063342 | 81 | 133 | 2.0 | 4.0 | 0.00 | 0.04 | 0.00 | 89 | 1013.7 |
| 20260903062327 | 81 | 149 | 2.0 | 4.0 | 0.00 | 0.04 | 0.00 | 89 | 1013.8 |
| 20260903061332 | 81 | 136 | 3.0 | 4.0 | 0.00 | 0.04 | 0.00 | 89 | 1013.8 |
| 20260903060335 | 82 | 139 | 3.0 | 7.0 | 0.00 | 0.04 | 0.00 | 89 | 1013.9 |
| 20260903055342 | 82 | 133 | 3.0 | 4.0 | 0.00 | 0.04 | 0.00 | 89 | 1014.1 |
| 20260903054348 | 82 | 137 | 2.0 | 3.0 | 0.00 | 0.04 | 0.00 | 88 | 1014.2 |
| 20260903053327 | 82 | 131 | 0.0 | 3.0 | 0.00 | 0.04 | 0.00 | 88 | 1014.3 |
| 20260903052336 | 82 | 135 | 3.0 | 6.0 | 0.00 | 0.04 | 0.00 | 88 | 1014.3 |
| 20260903051342 | 82 | 133 | 2.0 | 3.0 | 0.00 | 0.04 | 0.00 | 87 | 1014.5 |
| 20260903050403 | 82 | 137 | 2.0 | 3.0 | 0.00 | 0.04 | 0.00 | 87 | 1014.7 |
| 20260903045348 | 82 | 101 | 0.0 | 0.0 | 0.00 | 0.04 | 0.03 | 86 | 1014.9 |
| 20260903044333 | 83 | 5 | 0.0 | 0.0 | 0.00 | 0.04 | 0.03 | 85 | 1015.0 |
| 20260903043336 | 83 | 5 | 0.0 | 0.0 | 0.00 | 0.04 | 0.03 | 83 | 1015.2 |
| 20260903042343 | 84 | 5 | 0.0 | 0.0 | 0.00 | 0.04 | 0.03 | 82 | 1015.3 |
| 20260903041331 | 84 | 5 | 0.0 | 0.0 | 0.00 | 0.04 | 0.03 | 81 | 1015.2 |
| 20260903040333 | 84 | 27 | 0.0 | 0.0 | 0.00 | 0.04 | 0.03 | 80 | 1015.0 |
| 20260903035357 | 84 | 27 | 0.0 | 0.0 | 0.00 | 0.04 | 0.03 | 80 | 1015.0 |
| 20260903034343 | 84 | 27 | 0.0 | 0.0 | 0.00 | 0.04 | 0.03 | 79 | 1014.9 |
| 20260903033346 | 84 | 27 | 0.0 | 0.0 | 0.00 | 0.04 | 0.03 | 78 | 1014.8 |
| 20260903032350 | 84 | 141 | 0.0 | 2.0 | 0.00 | 0.04 | 0.03 | 78 | 1014.6 |
| 20260903031333 | 84 | 141 | 1.0 | 5.0 | 0.00 | 0.04 | 0.03 | 78 | 1014.3 |
| 20260903030336 | 85 | 148 | 2.0 | 5.0 | 0.00 | 0.04 | 0.03 | 77 | 1014.0 |
| 20260903025339 | 85 | 137 | 3.0 | 8.0 | 0.00 | 0.04 | 0.03 | 76 | 1013.4 |
| 20260903024347 | 85 | 147 | 3.0 | 10.0 | 0.00 | 0.04 | 0.03 | 75 | 1013.4 |
| 20260903023348 | 85 | 138 | 4.0 | 12.0 | 0.00 | 0.04 | 0.03 | 74 | 1013.2 |
| 20260903022336 | 86 | 131 | 5.0 | 11.0 | 0.00 | 0.04 | 0.03 | 73 | 1013.1 |
| 20260903021340 | 86 | 142 | 4.0 | 10.0 | 0.00 | 0.04 | 0.03 | 71 | 1012.7 |
| 20260903020342 | 86 | 132 | 3.0 | 10.0 | 0.00 | 0.04 | 0.03 | 70 | 1012.6 |
| 20260903015327 | 87 | 141 | 4.0 | 10.0 | 0.00 | 0.04 | 0.03 | 70 | 1012.4 |
| 20260903014326 | 87 | 129 | 4.0 | 10.0 | 0.00 | 0.04 | 0.03 | 69 | 1012.3 |
| 20260903013330 | 88 | 141 | 4.0 | 12.0 | 0.00 | 0.04 | 0.03 | 68 | 1012.1 |
| 20260903012335 | 88 | 143 | 4.0 | 9.0 | 0.00 | 0.04 | 0.03 | 63 | 1012.1 |
| 20260903011325 | 89 | 144 | 2.0 | 8.0 | 0.00 | 0.04 | 0.03 | 60 | 1012.0 |
| 20260903010327 | 90 | 155 | 3.0 | 9.0 | 0.00 | 0.04 | 0.03 | 58 | 1011.8 |
| 20260903005331 | 90 | 145 | 3.0 | 8.0 | 0.02 | 0.04 | 0.03 | 57 | 1011.8 |
| 20260903004335 | 90 | 141 | 2.0 | 9.0 | 0.02 | 0.04 | 0.03 | 57 | 1011.8 |
| 20260903003339 | 91 | 145 | 5.0 | 10.0 | 0.02 | 0.04 | 0.03 | 56 | 1011.6 |
| 20260903002343 | 92 | 139 | 6.0 | 10.0 | 0.02 | 0.04 | 0.03 | 57 | 1011.2 |
| 20260903001329 | 92 | 144 | 5.0 | 14.0 | 0.02 | 0.04 | 0.03 | 56 | 1011.1 |
| 20260903000332 | 93 | 151 | 3.0 | 12.0 | 0.02 | 0.04 | 0.03 | 55 | 1011.0 |
| 20260902235342 | 93 | 149 | 4.0 | 10.0 | 0.00 | 0.02 | 0.02 | 54 | 1011.0 |
| 20260902234346 | 94 | 144 | 7.0 | 14.0 | 0.00 | 0.02 | 0.02 | 53 | 1010.9 |
| 20260902233344 | 95 | 140 | 3.0 | 9.0 | 0.01 | 0.02 | 0.02 | 54 | 1010.9 |
| 20260902232329 | 95 | 144 | 3.0 | 8.0 | 0.01 | 0.02 | 0.02 | 53 | 1010.9 |
| 20260902231352 | 95 | 155 | 4.0 | 11.0 | 0.02 | 0.02 | 0.02 | 52 | 1010.8 |
| 20260902230332 | 96 | 123 | 2.0 | 10.0 | 0.02 | 0.02 | 0.02 | 53 | 1010.9 |
| 20260902225337 | 96 | 146 | 6.0 | 12.0 | 0.02 | 0.02 | 0.02 | 50 | 1010.9 |
| 20260902224403 | 97 | 145 | 2.0 | 7.0 | 0.02 | 0.02 | 0.02 | 48 | 1010.8 |
| 20260902223343 | 97 | 168 | 1.0 | 4.0 | 0.01 | 0.01 | 0.01 | 46 | 1010.8 |
| 20260902222354 | 97 | 131 | 2.0 | 3.0 | 0.01 | 0.01 | 0.01 | 46 | 1010.8 |